This is the latest recevied weather packets stored in our database for station/object W8DRH-13. If no packets are shown the sender has not sent any weather packets the latest 10 day(s).
| Time | Temp. | Humidity | Pressure | Rain* | Wind** | Luminosity | Snow |
|---|---|---|---|---|---|---|---|
| 1777901367 | 13.89° C | 68% | 1006 hPa | 0 mm | - | 399 W/m² | - |
| 1777901065 | 13.33° C | 68% | 1006.2 hPa | 0 mm | - | 368 W/m² | - |
| 1777900761 | 13.33° C | 69% | 1006.2 hPa | 0 mm | - | 319 W/m² | - |
| 1777900459 | 12.78° C | 69% | 1006.4 hPa | 0 mm | - | 325 W/m² | - |
| 1777900155 | 12.78° C | 69% | 1006.5 hPa | 0 mm | - | 276 W/m² | - |
| 1777899851 | 12.78° C | 69% | 1006.4 hPa | 0 mm | - | 57 W/m² | - |
| 1777899548 | 12.78° C | 70% | 1006.4 hPa | 0 mm | - | 55 W/m² | - |
| 1777899246 | 12.22° C | 70% | 1006.2 hPa | 0 mm | - | 55 W/m² | - |
| 1777898944 | 12.22° C | 70% | 1006.3 hPa | 0 mm | - | 244 W/m² | - |
| 1777898640 | 12.22° C | 70% | 1006.6 hPa | 0 mm | - | 57 W/m² | - |
| 1777898338 | 11.67° C | 70% | 1006.5 hPa | 0 mm | - | 50 W/m² | - |
| 1777898036 | 11.67° C | 71% | 1006.2 hPa | 0 mm | - | 50 W/m² | - |
| 1777897731 | 11.67° C | 71% | 1006.4 hPa | 0 mm | - | 48 W/m² | - |
| 1777897428 | 11.11° C | 71% | 1006.3 hPa | 0 mm | - | 47 W/m² | - |
| 1777897124 | 11.11° C | 72% | 1006.4 hPa | 0 mm | - | 45 W/m² | - |
| 1777896820 | 11.11° C | 72% | 1006.3 hPa | 0 mm | - | 44 W/m² | - |
| 1777896518 | 10.56° C | 72% | 1006.3 hPa | 0 mm | - | 42 W/m² | - |
| 1777896215 | 10.56° C | 72% | 1006.5 hPa | 0 mm | - | 41 W/m² | - |
| 1777895913 | 10.56° C | 73% | 1006.6 hPa | 0 mm | - | 41 W/m² | - |
| 1777895610 | 10.56° C | 73% | 1006.6 hPa | 0 mm | - | 40 W/m² | - |
| 1777895307 | 10° C | 73% | 1006.5 hPa | 0 mm | - | 46 W/m² | - |
| 1777895006 | 10° C | 73% | 1006.4 hPa | 0 mm | - | 48 W/m² | - |
| 1777894702 | 10° C | 74% | 1006.6 hPa | 0 mm | - | 45 W/m² | - |
| 1777894399 | 10° C | 74% | 1006.4 hPa | 0 mm | - | 41 W/m² | - |
| 1777894096 | 10° C | 74% | 1006.3 hPa | 0 mm | - | 37 W/m² | - |
* Rain latest hour (hover to see other rain measurements)
** Current wind speed in m/s (hover to see current wind gust speed)